Tracking 35274 objects as of 11-Sep-2026
HD Live streaming from Space Station
objects crossing your sky now

STARLINK-5697

Track STARLINK-5697 now!
10-day predictions
STARLINK-5697 is classified as:


NORAD ID: 55589
Int'l Code: 2023-020W
Launch date: February 12, 2023
Source: United States (US)
Launch site: AIR FORCE EASTERN TEST RANGE (AFETR)
Your satellite tracking list
Your tracking list is empty




NASA's NSSDC Master Catalog

Two Line Element Set (TLE):
1 55589U 23020W   26254.45898734 -.00000150  00000-0  40934-5 0  9998
2 55589  43.0046  36.0854 0001619 272.0563  88.0103 15.27575940197326
Source of the keplerian elements: AFSPC